When you browse on this site, cookies collect data to enhance your experience and personalize the content and advertising you see.
Visit our Privacy Policy to learn more. By continuing to use the site, you agree to this use of cookies and data.
  • In Hungary
  • List of Countries
  • For 7 days
  • Water Temperature
  • Satellite Maps
  • Weather Map
  • News
  • Weather Widgets
  • user-avatar
    Login

    Hourly Weather Yalvaç

    Today, 18 February, Monday

    Time Temperature Precipitation Wind Pressure Humidity
    00:00 +1°C° 0 mm 1 mps 667 mmHg 71%
    01:00 +1°C° 0 mm 1 mps 667 mmHg 71%
    02:00 +1°C° 0 mm 1 mps 667 mmHg 72%
    03:00 +1°C° 0 mm 1 mps 667 mmHg 72%
    04:00 +1°C° 0 mm 1 mps 667 mmHg 72%
    05:00 +1°C° 0 mm 1 mps 667 mmHg 72%
    06:00 +1°C° 0 mm 1 mps 667 mmHg 70%
    07:00 +2°C° 0 mm 1 mps 667 mmHg 67%
    08:00 +3°C° 0 mm 1 mps 668 mmHg 64%
    09:00 +3°C° 0 mm 2 mps 668 mmHg 60%
    10:00 +5°C° 0 mm 2 mps 668 mmHg 56%
    11:00 +6°C° 0 mm 2 mps 668 mmHg 52%
    12:00 +7°C° 0 mm 2 mps 667 mmHg 49%
    13:00 +8°C° 0 mm 2 mps 667 mmHg 47%
    14:00 +8°C° 0 mm 2 mps 667 mmHg 44%
    15:00 +9°C° 0 mm 1 mps 667 mmHg 46%
    16:00 +8°C° 0 mm 1 mps 667 mmHg 48%
    17:00 +8°C° 0 mm 1 mps 666 mmHg 50%
    18:00 +7°C° 0 mm 1 mps 666 mmHg 52%
    19:00 +6°C° 0 mm 1 mps 667 mmHg 55%
    20:00 +3°C° 0 mm 0 mps 667 mmHg 57%
    21:00 +3°C° 0 mm 0 mps 667 mmHg 59%
    22:00 +3°C° 0 mm 0 mps 667 mmHg 61%
    23:00 +2°C° 0 mm 0 mps 667 mmHg 63%

    Tomorrow, 19 February, Tuesday

    Time Temperature Precipitation Wind Pressure Humidity
    00:00 +2°C° 0 mm 0 mps 667 mmHg 65%
    01:00 +2°C° 0 mm 0 mps 667 mmHg 67%
    02:00 +1°C° 0 mm 0 mps 667 mmHg 68%
    03:00 +1°C° 0 mm 0 mps 667 mmHg 69%
    04:00 +1°C° 0 mm 0 mps 667 mmHg 70%
    05:00 +1°C° 0 mm 0 mps 667 mmHg 71%
    06:00 +2°C° 0 mm 0 mps 667 mmHg 67%
    07:00 +2°C° 0 mm 0 mps 668 mmHg 63%
    08:00 +3°C° 0 mm 0 mps 668 mmHg 60%
    09:00 +5°C° 0 mm 0 mps 668 mmHg 54%
    10:00 +7°C° 0 mm 1 mps 668 mmHg 49%
    11:00 +9°C° 0 mm 1 mps 668 mmHg 44%
    12:00 +9°C° 0 mm 1 mps 668 mmHg 43%
    13:00 +10°C° 0 mm 1 mps 667 mmHg 42%
    14:00 +10°C° 0 mm 1 mps 667 mmHg 42%
    15:00 +10°C° 0 mm 1 mps 667 mmHg 44%
    16:00 +8°C° 0 mm 0 mps 667 mmHg 47%
    17:00 +8°C° 0 mm 0 mps 666 mmHg 50%
    18:00 +7°C° 0 mm 0 mps 666 mmHg 52%
    19:00 +5°C° 0 mm 0 mps 666 mmHg 55%
    20:00 +4°C° 0 mm 0 mps 666 mmHg 57%
    21:00 +4°C° 0 mm 0 mps 666 mmHg 58%
    22:00 +3°C° 0 mm 0 mps 666 mmHg 58%
    23:00 +3°C° 0 mm 0 mps 666 mmHg 59%

    Day after tomorrow, 20 February, Wednesday

    Time Temperature Precipitation Wind Pressure Humidity
    00:00 +4°C° 0 mm 1 mps 666 mmHg 58%
    01:00 +4°C° 0 mm 1 mps 666 mmHg 58%
    02:00 +3°C° 0 mm 1 mps 666 mmHg 58%
    03:00 +3°C° 0 mm 1 mps 666 mmHg 58%
    04:00 +3°C° 0 mm 1 mps 666 mmHg 58%
    05:00 +3°C° 0 mm 1 mps 665 mmHg 58%
    06:00 +4°C° 0 mm 1 mps 666 mmHg 55%
    07:00 +4°C° 0 mm 1 mps 666 mmHg 52%
    08:00 +5°C° 0 mm 1 mps 667 mmHg 49%
    09:00 +7°C° 0 mm 1 mps 667 mmHg 46%
    10:00 +8°C° 0 mm 1 mps 667 mmHg 43%
    11:00 +9°C° 0 mm 1 mps 667 mmHg 40%
    12:00 +10°C° 0 mm 1 mps 667 mmHg 39%
    13:00 +11°C° 0 mm 1 mps 667 mmHg 37%
    14:00 +10°C° 0 mm 2 mps 667 mmHg 36%
    15:00 +11°C° 0 mm 1 mps 667 mmHg 37%
    16:00 +10°C° 0 mm 1 mps 666 mmHg 39%
    17:00 +10°C° 0 mm 1 mps 666 mmHg 41%
    18:00 +8°C° 0 mm 1 mps 666 mmHg 43%
    19:00 +7°C° 0 mm 1 mps 666 mmHg 45%
    20:00 +6°C° 0 mm 1 mps 667 mmHg 47%
    21:00 +6°C° 0 mm 1 mps 667 mmHg 50%
    22:00 +5°C° 0 mm 1 mps 667 mmHg 53%
    23:00 +5°C° 0 mm 1 mps 667 mmHg 56%

    21 February, Thursday

    Time Temperature Precipitation Wind Pressure Humidity
    00:00 +5°C° 0 mm 1 mps 667 mmHg 59%
    01:00 +4°C° 0 mm 1 mps 667 mmHg 62%
    02:00 +4°C° 0 mm 1 mps 667 mmHg 64%
    03:00 +4°C° 0 mm 1 mps 667 mmHg 66%
    04:00 +3°C° 0 mm 1 mps 667 mmHg 67%
    05:00 +3°C° 0 mm 1 mps 667 mmHg 68%
    06:00 +4°C° 0 mm 1 mps 667 mmHg 65%
    07:00 +4°C° 0 mm 1 mps 668 mmHg 62%
    08:00 +5°C° 0 mm 1 mps 669 mmHg 60%
    09:00 +6°C° 0 mm 1 mps 669 mmHg 57%
    10:00 +7°C° 0 mm 1 mps 669 mmHg 54%
    11:00 +8°C° 0 mm 1 mps 669 mmHg 51%
    12:00 +8°C° 0 mm 2 mps 669 mmHg 48%
    13:00 +8°C° 0 mm 2 mps 668 mmHg 46%
    14:00 +9°C° 0 mm 2 mps 668 mmHg 43%
    15:00 +9°C° 0 mm 2 mps 668 mmHg 44%
    16:00 +8°C° 0 mm 2 mps 668 mmHg 45%
    17:00 +8°C° 0 mm 2 mps 668 mmHg 47%
    18:00 +7°C° 0 mm 2 mps 668 mmHg 53%
    19:00 +7°C° 0 mm 1 mps 668 mmHg 58%
    20:00 +6°C° 0 mm 1 mps 668 mmHg 64%
    21:00 +5°C° 0 mm 1 mps 668 mmHg 67%
    22:00 +5°C° 0 mm 1 mps 668 mmHg 69%
    23:00 +3°C° 0 mm 0 mps 668 mmHg 72%

    22 February, Friday

    Time Temperature Precipitation Wind Pressure Humidity
    00:00 +3°C° 0 mm 0 mps 668 mmHg 74%
    01:00 +2°C° 0 mm 0 mps 668 mmHg 75%
    02:00 +2°C° 0 mm 0 mps 668 mmHg 77%
    03:00 +2°C° 0 mm 0 mps 667 mmHg 78%
    04:00 +2°C° 0 mm 0 mps 667 mmHg 79%
    05:00 +1°C° 0 mm 0 mps 667 mmHg 80%
    06:00 +2°C° 0 mm 0 mps 667 mmHg 76%
    07:00 +4°C° 0 mm 1 mps 667 mmHg 71%
    08:00 +5°C° 0 mm 1 mps 667 mmHg 67%
    09:00 +6°C° 0 mm 1 mps 667 mmHg 60%
    10:00 +6°C° 0 mm 2 mps 667 mmHg 54%
    11:00 +7°C° 0 mm 2 mps 666 mmHg 47%
    12:00 +8°C° 0 mm 3 mps 666 mmHg 43%
    13:00 +9°C° 0 mm 3 mps 665 mmHg 39%
    14:00 +8°C° 0 mm 4 mps 664 mmHg 35%
    15:00 +9°C° 0 mm 3 mps 664 mmHg 37%
    16:00 +8°C° 0 mm 3 mps 664 mmHg 39%
    17:00 +8°C° 0 mm 3 mps 663 mmHg 42%
    18:00 +7°C° 0 mm 3 mps 663 mmHg 46%
    19:00 +6°C° 0 mm 2 mps 663 mmHg 50%
    20:00 +5°C° 0 mm 2 mps 663 mmHg 54%
    21:00 +6°C° 0 mm 1 mps 664 mmHg 56%
    22:00 +6°C° 0 mm 1 mps 664 mmHg 58%
    23:00 +6°C° 0 mm 1 mps 664 mmHg 60%

    23 February, Saturday

    Time Temperature Precipitation Wind Pressure Humidity
    00:00 +5°C° 0.1 mm 1 mps 664 mmHg 62%
    01:00 +5°C° 0.1 mm 1 mps 663 mmHg 65%
    02:00 +4°C° 0.1 mm 1 mps 663 mmHg 67%
    03:00 +4°C° 0.3 mm 1 mps 663 mmHg 71%
    04:00 +3°C° 0.3 mm 1 mps 663 mmHg 75%
    05:00 +3°C° 0.3 mm 1 mps 663 mmHg 79%
    06:00 +3°C° 0.7 mm 1 mps 663 mmHg 83%
    07:00 +3°C° 0.7 mm 1 mps 663 mmHg 86%
    08:00 +2°C° 0.7 mm 1 mps 663 mmHg 89%
    09:00 +1°C° 1 mm 2 mps 664 mmHg 90%
    10:00 0°C° 1 mm 3 mps 664 mmHg 90%
    11:00 0°C° 1 mm 3 mps 664 mmHg 90%
    12:00 0°C° 0.6 mm 3 mps 664 mmHg 89%
    13:00 0°C° 0.6 mm 3 mps 664 mmHg 88%
    14:00 -1°C° 0.6 mm 3 mps 663 mmHg 86%
    15:00 -1°C° 0.4 mm 3 mps 664 mmHg 86%
    16:00 -1°C° 0.4 mm 3 mps 664 mmHg 86%
    17:00 -2°C° 0.4 mm 3 mps 664 mmHg 86%
    18:00 -2°C° 0.3 mm 3 mps 664 mmHg 87%
    19:00 -4°C° 0.3 mm 4 mps 664 mmHg 88%
    20:00 -5°C° 0.3 mm 4 mps 665 mmHg 89%
    21:00 -5°C° 0.2 mm 4 mps 665 mmHg 89%
    22:00 -6°C° 0.2 mm 3 mps 665 mmHg 88%
    23:00 -6°C° 0.2 mm 3 mps 664 mmHg 88%
    Show more